Location: Lombard
(41.8800°N, 88.0080°W)
Time: 23:50:21
(UTC-05:00)

Tiros 1 - Pass Details

Date: 02 February 2023
Orbit: 628 x 662 km, 48.4° (Epoch: 20 March)

Event Time Altitude Azimuth Distance (km) Brightness Sun altitude
Rises 07:29:02 0° 290° (WNW) 2,949 9.8 3.5°
Reaches altitude 10° 07:31:44 10° 276° (W) 2,043 9.2 3.9°
Maximum altitude 07:35:26 23° 224° (SW) 1,371 8.7 4.5°
Drops below altitude 10° 07:39:09 10° 172° (S) 2,051 10.3 5.2°
Sets 07:41:52 0° 158° (SSE) 2,964 11.4 5.6°
